Weather History for KILN - March, 2013

Change the Weather History Date:

Monday, March 18, 2013

  Actual Average (KDAY) Record (KDAY)
Temperature  
Mean Temperature 40 °F 41 °F  
Max Temperature 48 °F 50 °F 78 °F (2012)
Min Temperature 32 °F 32 °F 3 °F (1906)
Degree Days  
Heating Degree Days 25 24  
Month to date heating degree days 487  
Since 1 July heating degree days 4762  
Cooling Degree Days 0 0  
Month to date cooling degree days 0  
Year to date cooling degree days 0  
Moisture  
Dew Point 39 °F    
Average Humidity 94    
Maximum Humidity 100    
Minimum Humidity 77    
Precipitation  
Precipitation 0.85 in 0.11 in 1.65 in (2008)
Month to date precipitation 1.78  
Year to date precipitation 6.73  
Snow  
Snow 0.00 in 0.10 in 2.00 in (1896)
Month to date snowfall 2.4  
Since 1 July snowfall 21.7  
Snow Depth -    
Sea Level Pressure  
Sea Level Pressure 29.76 in    
Wind  
Wind Speed 12 mph (SSE)    
Max Wind Speed 23 mph    
Max Gust Speed 30 mph    
Visibility 5 miles    
Events Rain , Thunderstorm    
T = Trace of Precipitation, MM = Missing Value Source: NWS Daily Summary

Daily Weather History Graph

Daily Weather History Graph

Search for Another Location

Airport or City:

Trip Planner

Search our weather history database for the weather conditions in past years. The results will help you decide how hot, cold, wet, or windy it might be!

Date:

Astronomy

Mar. 18, 2013 Rise Set
Actual Time 7:41 AM EDT 7:45 PM EDT
Civil Twilight 7:14 AM EDT 8:12 PM EDT
Nautical Twilight 6:43 AM EDT 8:43 PM EDT
Astronomical Twilight 6:11 AM EDT 9:15 PM EDT
Moon 11:42 AM EDT (3/18) 1:42 AM EDT (3/18)
Length of Visible Light 12h 57m
Length of Day
12h 04m
Waxing Crescent, 40% of the Moon is Illuminated
Mar 18
Waxing Crescent
Mar 19
First Quarter
Mar 27
Full
Apr 3
Last Quarter
Apr 10
New

Hourly Weather History & Observations

Time (EDT) Temp. Windchill Dew Point Humidity Pressure Visibility Wind Dir Wind Speed Gust Speed Precip Events Conditions
12:54 AM 33.1 °F 24.9 °F 30.0 °F 89% 30.05 in 5.0 mi ENE 10.4 mph - 0.02 in Rain Light Rain
1:31 AM 33.8 °F 25.8 °F 30.2 °F 87% 29.97 in 5.0 mi East 10.4 mph 19.6 mph 0.03 in Rain Light Rain
1:54 AM 32.0 °F 22.5 °F 30.0 °F 92% 30.01 in 4.0 mi ENE 12.7 mph 19.6 mph 0.07 in Rain Rain
2:54 AM 32.0 °F 22.1 °F 30.0 °F 92% 29.98 in 4.0 mi East 13.8 mph 24.2 mph 0.08 in   Overcast
3:14 AM 32.0 °F 21.6 °F 30.2 °F 93% 29.89 in 4.0 mi East 15.0 mph 24.2 mph 0.02 in   Overcast
3:26 AM 32.0 °F 22.1 °F 30.2 °F 93% 29.88 in 4.0 mi East 13.8 mph 24.2 mph 0.03 in   Overcast
3:29 AM 32.0 °F 22.1 °F 30.2 °F 93% 29.88 in 4.0 mi East 13.8 mph 24.2 mph 0.03 in Rain Light Freezing Rain
3:50 AM 32.0 °F 22.1 °F 30.2 °F 93% 29.86 in 2.5 mi East 13.8 mph 26.5 mph 0.05 in Rain Light Freezing Rain
3:54 AM 32.0 °F 21.6 °F 30.0 °F 92% 29.92 in 2.5 mi East 15.0 mph 24.2 mph 0.06 in Rain Light Freezing Rain
3:59 AM 32.0 °F 22.1 °F 30.2 °F 93% 29.85 in 3.0 mi East 13.8 mph 24.2 mph 0.01 in Rain Light Freezing Rain
4:54 AM 32.0 °F 23.6 °F 30.9 °F 96% 29.89 in 6.0 mi East 10.4 mph 20.7 mph 0.05 in Rain Light Freezing Rain
5:27 AM 32.0 °F 22.1 °F 30.2 °F 93% 29.79 in 5.0 mi East 13.8 mph 21.9 mph 0.01 in   Overcast
5:54 AM 32.0 °F 23.6 °F 32.0 °F 100% 29.88 in 4.0 mi NE 10.4 mph 19.6 mph 0.02 in   Overcast
6:05 AM 33.8 °F 24.8 °F 32.0 °F 93% 29.82 in 2.5 mi NE 12.7 mph - 0.04 in Rain Heavy Rain
6:15 AM 32.0 °F 22.5 °F 32.0 °F 100% 29.78 in 3.0 mi ENE 12.7 mph - 0.07 in Rain Rain
6:42 AM 33.8 °F 26.4 °F 32.0 °F 93% 29.80 in 3.0 mi NE 9.2 mph 17.3 mph 0.14 in Rain , Thunderstorm Heavy Rain
6:50 AM 33.8 °F 27.0 °F 32.0 °F 93% 29.81 in 1.8 mi NNW 8.1 mph 17.3 mph 0.20 in Rain , Thunderstorm Heavy Rain
6:54 AM 32.0 °F 23.6 °F 32.0 °F 100% 29.86 in 1.5 mi ENE 10.4 mph 17.3 mph 0.27 in Rain , Thunderstorm Heavy Rain
7:00 AM 32.0 °F 24.2 °F 32.0 °F 100% 29.79 in 1.8 mi ENE 9.2 mph - 0.05 in Rain Heavy Rain
7:15 AM 32.0 °F 23.0 °F 32.0 °F 100% 29.75 in 3.0 mi East 11.5 mph - 0.12 in   Overcast
7:54 AM 33.1 °F 23.4 °F 32.0 °F 96% 29.80 in 9.0 mi ESE 13.8 mph 20.7 mph 0.22 in Rain Light Rain
8:08 AM 33.8 °F 27.7 °F 33.8 °F 100% 29.76 in 9.0 mi Variable 6.9 mph 18.4 mph 0.00 in Rain Light Rain
8:54 AM 35.1 °F 30.1 °F 34.0 °F 96% 29.80 in 9.0 mi East 5.8 mph - 0.00 in   Overcast
9:54 AM 37.0 °F 31.0 °F 36.0 °F 96% 29.76 in 10.0 mi ESE 8.1 mph - N/A   Overcast
10:54 AM 39.9 °F 34.5 °F 39.0 °F 97% 29.75 in 10.0 mi SE 8.1 mph - N/A   Overcast
11:54 AM 43.0 °F 38.8 °F 42.1 °F 97% 29.73 in 10.0 mi SSE 6.9 mph - 0.00 in   Overcast
12:54 PM 46.9 °F - 46.0 °F 97% 29.70 in 10.0 mi South 16.1 mph - N/A   Overcast
1:25 PM 48.2 °F - 46.4 °F 93% 29.64 in 1.8 mi South 17.3 mph 20.7 mph 0.00 in Rain Light Rain
1:38 PM 48.2 °F - 46.4 °F 93% 29.64 in 3.0 mi South 13.8 mph - 0.00 in Rain Light Rain
1:54 PM 48.0 °F - 46.9 °F 96% 29.69 in 8.0 mi South 11.5 mph - 0.00 in   Overcast
2:01 PM 48.2 °F - 46.4 °F 93% 29.64 in 10.0 mi South 11.5 mph - 0.01 in   Overcast
2:24 PM 48.2 °F - 46.4 °F 93% 29.63 in 1.8 mi SSW 11.5 mph - 0.01 in Rain Light Rain
2:54 PM 48.9 °F - 48.0 °F 97% 29.66 in 1.2 mi South 11.5 mph - 0.02 in Rain Light Rain
3:35 PM 48.2 °F - 48.2 °F 100% 29.61 in 1.2 mi SW 12.7 mph - 0.01 in Rain Light Rain
3:54 PM 48.9 °F - 48.0 °F 97% 29.65 in 1.2 mi SSW 12.7 mph - 0.01 in Rain Light Rain
4:10 PM 48.2 °F - 48.2 °F 100% 29.61 in 2.0 mi SW 12.7 mph - 0.01 in   Overcast
4:16 PM 48.2 °F - 48.2 °F 100% 29.61 in 3.0 mi SW 12.7 mph - 0.01 in   Overcast
4:31 PM 48.2 °F - 48.2 °F 100% 29.61 in 1.8 mi SW 15.0 mph - 0.01 in   Overcast
4:49 PM 48.2 °F - 48.2 °F 100% 29.61 in 1.8 mi SW 13.8 mph - 0.01 in Rain Light Rain
4:54 PM 48.9 °F - 48.0 °F 97% 29.66 in 2.5 mi SW 12.7 mph - 0.01 in Rain Light Rain
5:05 PM 48.2 °F - 48.2 °F 100% 29.60 in 5.0 mi SW 12.7 mph - 0.00 in   Overcast
5:36 PM 48.2 °F - 48.2 °F 100% 29.61 in 9.0 mi SW 17.3 mph - 0.01 in   Overcast
5:54 PM 48.9 °F - 46.9 °F 93% 29.67 in 10.0 mi SW 18.4 mph 24.2 mph 0.01 in   Overcast
6:36 PM 48.2 °F - 46.4 °F 93% 29.64 in 8.0 mi SW 13.8 mph - N/A   Overcast
6:54 PM 48.0 °F - 46.9 °F 96% 29.71 in 3.0 mi SW 13.8 mph 24.2 mph 0.00 in Rain Light Rain
6:57 PM 48.2 °F - 46.4 °F 93% 29.65 in 2.5 mi SW 15.0 mph 24.2 mph 0.00 in Rain Light Rain
7:12 PM 48.2 °F - 46.4 °F 93% 29.66 in 3.0 mi SW 11.5 mph - 0.00 in Rain Light Rain
7:54 PM 48.0 °F - 45.0 °F 89% 29.74 in 10.0 mi West 23.0 mph 28.8 mph 0.01 in   Overcast
8:54 PM 46.0 °F 38.8 °F 42.1 °F 86% 29.77 in 10.0 mi West 18.4 mph 27.6 mph N/A   Overcast
9:45 PM 42.8 °F 35.4 °F 39.2 °F 87% 29.74 in 10.0 mi West 15.0 mph - 0.00 in   Overcast
9:54 PM 43.0 °F 35.4 °F 39.0 °F 86% 29.80 in 10.0 mi West 16.1 mph 25.3 mph 0.00 in   Overcast
10:54 PM 41.0 °F 32.5 °F 36.0 °F 82% 29.82 in 10.0 mi West 17.3 mph 27.6 mph N/A   Overcast
11:54 PM 39.9 °F 30.5 °F 33.1 °F 77% 29.84 in 10.0 mi West 19.6 mph 29.9 mph N/A   Overcast